FENGYUN 1C DEB, 33612

Orbit data source: Space-Track

FENGYUN 1C DEB, 33612 is space debris in SSO originally from a launch on Mon, 10 May 1999 UTC launched from the Taiyaun Space Center, China (TSC). Fengyun 1C debris stems from the Chinese weather satellite Fengyun-1C, which was intentionally destroyed by a Chinese anti-satellite missile in 2007. This event dramatically increased the amount of space debris, with thousands of trackable fragments posing hazards to satellites and human spaceflight. The Fengyun 1C debris cloud has become a focal point in discussions about space sustainability and the need for international regulations to prevent the creation of new debris.

Loading next visibility...
Identifier
33612, 1999-025DCV
Orbit
SSO
Country
Flag of CNCN / PRC
Related business
Manufacturer
Unknown
Mission
Spacecraft
Bus & Motor
Unknown
Mass
Unknown
Launch date (UTC)
1999-05-10 (27 years ago)
Launch vehicle
Unknown
Launch site
Taiyaun Space Center, China (TSC)
Object type
Payload
Rocket body
Debris
Shape & HBR
Unknown shape, 0.1 m
Radar Cross Section
Small (<0.1 m²)

Expand to show TLE details & history
Last TLE update: 2 days ago

TLE from 2 days ago
0 FENGYUN 1C DEB
1 33612U 99025DCV 26262.12367245  .00001409  00000-0  84721-3 0  9997
2 33612  98.6142 222.0239 0112091  39.0103 321.9084 14.05271161606105
Epoch: 2026-09-19T02:58Z
TLE epoch observation values (Epoch: 2026-09-19T02:58:05.299Z)
Latitude
-0.00004°
Longitude
179.46511°
Altitude
814.844 km
Speed
7.478 km/s
True Right ascension
14h 48m 05s
True Declination
0° 00' 00"
Sunlit
Object was in daylight at epoch
Visualization orbit readout
Latitude
Unknown
Longitude
Unknown
Altitude
Unknown
Speed
Unknown
Apparent Right ascension
Unknown
Apparent Declination
Unknown
Sunlit
N/A
Visualization observer readout
Local Sidereal Time
14:01:24
Azimuth
Unknown
Elevation
Unknown
Doppler factor
Unknown
Orbital elements
Apogee altitude
954.049 km
Perigee altitude
791.496 km
Semi-major axis
7,250.909 km
Eccentricity
0.01121
Inclination
98.6142°
RAAN
222.0239°
Arg. of periapsis
39.0103°
True anomaly
321.10718°
Mean anomaly
321.9084°
Eccentric anomaly
321.50868°
Mean motion
3.51524 °/min
Orbital period
102.41 mins
BSTAR
0.00084721
Loading maneuver chart data...
Computing Atmospheric mass density...

Documentation

Showing up to 5 results
|